• Processing (Info)

  • MPEC 2013-T87 : 2013 RD32 = 2004 RS331

    The following Minor Planet Electronic Circular may be linked-to from your own Web pages, but must not otherwise be redistributed electronically.

    A form allowing access to any MPEC is at the bottom of this page.


    Read MPEC 2013-T86 Read MPEC 2013-T88


    M.P.E.C. 2013-T87                                Issued 2013 Oct. 10, 18:01 UT
    
         The Minor Planet Electronic Circulars contain information on unusual
             minor planets and routine data on comets.  They are published
       on behalf of Commission 20 of the International Astronomical Union by the
              Minor Planet Center, Smithsonian Astrophysical Observatory,
                              Cambridge, MA 02138, U.S.A.
    
                 Prepared using the Tamkin Foundation Computer Network
    
                                  MPC@CFA.HARVARD.EDU
                URL http://www.minorplanetcenter.net/    ISSN 1523-6714
    
                                2013 RD32 = 2004 RS331
    
                               Revision to MPEC 2013-R67
    
    Orbital elements:
    2013 RD32 = 2004 RS331                                   Earth MOID = 0.3630 AU
    Id. G. V. Williams, A. Lowe
    Epoch 2013 Nov. 4.0 TT = JDT 2456600.5                  MPC
    M  52.78899              (2000.0)            P               Q
    n   0.22120735     Peri.   85.96207     -0.23609340     +0.97112681
    a   2.7077154      Node   170.17754     -0.95206018     -0.22411603
    e   0.5211460      Incl.   11.57963     -0.19452847     -0.08176017
    P   4.46           H   18.4           G   0.15           U   3
    Residuals in seconds of arc
    040908 688  0.1+  0.2-    130906 033  0.1+  0.6-    130913 291  0.2-  0.4+
    040908 688  0.1+  0.2+    130906 033  1.0+  1.1+    130924 691  0.3+  0.9-
    040912 691  0.0   0.0     130906 033  0.5-  0.8-    130924 691  0.4-  0.2+
    040912 691  0.1-  0.1-    130906 033  0.2-  0.8+    130924 691  0.6+  0.0
    040912 691  0.0   0.0     130906 H21  0.1+  0.1-    130925 G96  0.2+  0.4+
    130904 F51  0.1+  0.2-    130906 H21  0.0   0.8-    130925 G96  0.2-  0.2+
    130904 F51  0.1+  0.1+    130906 H21  0.1-  0.5-    130925 G96  0.1+  0.0
    130905 K93  0.4-  0.1-    130907 H21  0.3-  0.0     130925 691  0.7+  0.8+
    130905 K93  0.2-  0.2+    130907 H21  0.1-  0.3+    130925 G96  0.2-  0.5+
    130905 K93  0.3-  0.3+    130907 H21  0.3+  0.5-    130925 691  0.5+  0.2-
    130905 568  0.0   0.0     130907 H36 (1.8+  0.4-)   130925 691  0.3-  0.5-
    130905 568  0.0   0.0     130907 H36  0.2-  1.1-    131008 807  0.2-  0.6-
    130905 568  0.0   0.1-    130907 H36  0.2-  1.1-    131008 807  0.1+  0.4-
    130905 291  0.0   0.3+    130907 H36  0.6+  0.6-    131008 807  0.1+  0.0
    130905 291  0.0   0.5+    130913 291  0.3-  0.0     131009 291  0.2-  0.8-
    130905 291  0.3-  0.3+    130913 291  0.2-  0.7+    131009 291  0.5-  0.9+
    
    Ephemeris:
    2013 RD32                a,e,i = 2.71, 0.52, 12                  q = 1.2966
    Date    TT    R. A. (2000) Decl.     Delta      r     Elong.  Phase     V
    2013 09 10    00 22 00.6 -00 19 48   1.2073  2.1878   162.2     8.1    21.1
    ...
    2013 09 25    00 07 08.7 -03 29 55   1.2797  2.2811   175.7     1.9    21.0
    ...
    2013 10 03    23 59 49.8 -04 57 07   1.3433  2.3301   167.4     5.4    21.3
    ...
    2013 10 09    23 55 04.6 -05 52 31   1.4021  2.3666   160.3     8.2    21.6
    2013 10 10    23 54 21.7 -06 00 49   1.4128  2.3726   159.1     8.6    21.6
    2013 10 11    23 53 40.1 -06 08 51   1.4238  2.3786   157.9     9.1    21.7
    ...
    2013 10 17    23 50 01.9 -06 51 17   1.4945  2.4147   150.9    11.6    21.9
    ...
    2013 10 25    23 46 38.4 -07 32 33   1.6010  2.4622   142.0    14.4    22.2
    ...
    2013 11 09    23 44 49.6 -08 06 15   1.8327  2.5495   126.5    18.2    22.7
    
    Gareth V. Williams           (C) Copyright 2013 MPC           M.P.E.C. 2013-T87
    

    Read MPEC 2013-T86 Read MPEC 2013-T88


    MPEC number:

    Enter an MPEC number in one of the following forms:

    • 1997-B01 (the full form)
    • J97B01 (the packed version of the full form)
    • B01 (the abbreviated form)